Flag for U.S.A. Weather past 2 weeks in Greeley, Colorado, U.S.A.

63 °F


Feels Like: 63 °F
Forecast: 43 / 83 °F
Wind: 3 mph from West

Location: Greeley / Weld

Current Time: Oct 10, 2015 at 11:10:52 AM

Latest Report: Oct 10, 2015 at 10:35 AM

Visibility: 10 mi

Pressure: 30.20 "Hg (25.54 "Hg at 1424m altitude)

Humidity: 56%

Dew point: 46 °F

Location of GreeleyLocation

Historic Weather in Greeley — Graph


Greeley temperature yesterday

Maximum temperature yesterday: 73 °F (at 2:55 PM)
Minimum temperature yesterday: 43 °F (at 5:35 AM)
Average temperature yesterday: 56 °F

Past Weeks' High & Low Weather Summary

High90 °F (Sep 27, 12:35 PM)100% (Oct 7, 2:55 AM)30.44 "Hg (Oct 7, 2:55 AM)
Low39 °F (Oct 10, 6:15 AM)16% (Sep 27, 1:35 PM)29.85 "Hg (Oct 2, 6:35 PM)
Average58 °F70%30.14 "Hg
* Reported Sep 25 9:15 AM — Oct 10 9:55 AM, Greeley, Weather by CustomWeather, © 2015

Note: Actual official high and low records may vary slightly from our data, if they occured in-between our weather recording intervals... More about our weather records


Greeley weather history for previous 24 hours

Time TempWeatherWind HumidityBarometerVisibility
9:55 AM
Sat, Oct 10
57 °FSunny.No wind63%30.21 "Hg10 mi
9:35 AM55 °FSunny.No wind67%30.21 "Hg10 mi
9:15 AM52 °FSunny.No wind77%30.22 "Hg10 mi
8:55 AM50 °FSunny.No wind82%30.22 "Hg9 mi
8:35 AM46 °FSunny.3 mph87%30.22 "Hg7 mi
8:15 AM45 °FSunny.3 mph81%30.21 "Hg10 mi
7:55 AM43 °FClear.No wind87%30.21 "Hg10 mi
7:35 AM41 °FClear.3 mph81%30.21 "Hg10 mi
7:15 AM39 °FClear.5 mph93%30.21 "Hg10 mi
6:55 AM39 °FClear.3 mph93%30.21 "Hg10 mi
6:35 AM41 °FClear.5 mph87%30.20 "Hg10 mi
6:15 AM39 °FClear.5 mph87%30.21 "Hg10 mi
5:55 AM41 °FClear.3 mph81%30.20 "Hg10 mi
5:35 AM43 °FClear.No wind81%30.20 "Hg10 mi
5:15 AM43 °FClear.5 mph81%30.20 "Hg10 mi
4:55 AM41 °FClear.5 mph87%30.20 "Hg10 mi
4:35 AM43 °FClear.No wind81%30.20 "Hg10 mi
4:15 AM45 °FClear.No wind81%30.20 "Hg8 mi
3:55 AM43 °FClear.5 mph87%30.20 "Hg7 mi
3:35 AM43 °FClear.3 mph87%30.20 "Hg7 mi
3:15 AM45 °FClear.No wind81%30.20 "Hg6 mi
2:55 AM43 °FClear.No wind87%30.21 "Hg5 mi
2:35 AM45 °FClear.No wind87%30.21 "Hg7 mi
2:15 AM46 °FClear.No wind87%30.21 "Hg7 mi
1:55 AM45 °FClear.No wind87%30.21 "Hg5 mi
1:35 AM46 °FClear.No wind87%30.22 "Hg5 mi
1:15 AM46 °FClear.3 mph82%30.22 "Hg6 mi
12:55 AM46 °FClear.No wind87%30.22 "Hg10 mi
12:35 AM48 °FClear.No wind82%30.22 "Hg10 mi
12:15 AM48 °FClear.No wind76%30.22 "Hg10 mi
11:55 PM
Fri, Oct 9
50 °FClear.5 mph76%30.22 "Hg10 mi
11:35 PM50 °FClear.7 mph82%30.23 "Hg10 mi
11:15 PM52 °FClear.10 mph77%30.23 "Hg10 mi
10:55 PM52 °FClear.5 mph77%30.23 "Hg10 mi
10:35 PM52 °FClear.3 mph77%30.24 "Hg10 mi
10:15 PM54 °FClear.3 mph72%30.24 "Hg10 mi
9:55 PM52 °FClear.3 mph77%30.24 "Hg10 mi
9:35 PM54 °FClear.No wind77%30.24 "Hg10 mi
9:15 PM54 °FClear.No wind77%30.24 "Hg10 mi
8:55 PM55 °FClear.No wind72%30.24 "Hg10 mi
8:35 PM54 °FClear.6 mph77%30.24 "Hg10 mi
8:15 PM55 °FClear.7 mph72%30.23 "Hg10 mi
7:55 PM57 °FClear.6 mph67%30.23 "Hg10 mi
7:35 PM57 °FClear.6 mph67%30.24 "Hg10 mi
7:15 PM57 °FSunny.5 mph67%30.23 "Hg10 mi
6:55 PM61 °FSunny.6 mph59%30.23 "Hg10 mi
6:35 PM64 °FSunny.7 mph52%30.23 "Hg10 mi
6:15 PM66 °FSunny.7 mph49%30.23 "Hg10 mi
5:55 PM68 °FSunny.7 mph46%30.23 "Hg10 mi
5:35 PM70 °FSunny.9 mph43%30.23 "Hg10 mi
5:15 PM72 °FSunny.6 mph38%30.23 "Hg10 mi
4:55 PM73 °FSunny.3 mph38%30.23 "Hg10 mi
4:35 PM73 °FSunny.6 mph38%30.23 "Hg10 mi
4:15 PM73 °FSunny.3 mph38%30.23 "Hg10 mi
3:15 PM72 °FSunny.7 mph41%30.24 "Hg10 mi
2:55 PM73 °FSunny.6 mph38%30.25 "Hg10 mi
2:35 PM72 °FSunny.No wind44%30.26 "Hg10 mi
2:15 PM72 °FSunny.3 mph41%30.27 "Hg10 mi
1:55 PM70 °FSunny.3 mph43%30.29 "Hg10 mi
1:35 PM70 °FSunny.No wind43%30.30 "Hg10 mi
1:15 PM70 °FSunny.7 mph43%30.31 "Hg10 mi
12:55 PM68 °FSunny.8 mph46%30.32 "Hg10 mi
12:35 PM66 °FSunny.No wind49%30.33 "Hg10 mi
12:15 PM64 °FSunny.3 mph52%30.35 "Hg10 mi
11:55 AM63 °FSunny.5 mph56%30.35 "Hg10 mi
11:35 AM63 °FSunny.3 mph56%30.37 "Hg10 mi
11:15 AM61 °FSunny.6 mph59%30.38 "Hg10 mi
Weather by CustomWeather, © 2015

See weather overviewHow to use our weather pages